Location: Bittkow
(50.3000°N, 19.0000°E)
Time: 23:16:12
(UTC+00:00)

IRS-1D - Pass Details

Date: 19 September 2020
Orbit: 740 x 816 km, 98.6° (Epoch: 30 October)

Event Time Altitude Azimuth Distance (km) Brightness Sun altitude
Rises 01:53:48 0° 10° (N) 3,356 7.5 -23.6°
Reaches altitude 10° 01:56:15 10° 4° (N) 2,422 6.6 -23.3°
Maximum altitude 02:01:19 44° 294° (WNW) 1,114 4.0 -22.6°
Enters shadow 02:01:47 43° 279° (W) 1,131 4.0 -22.6°
